Location: ???????
(55.4362°N, 38.1183°E)
Time: 11:24:43
(UTC+00:00)

USA 267 - Pass Details

Date: 02 November 2021
Orbit: 1101 x 1107 km, 123.0° (Epoch: 25 November)

Event Time Altitude Azimuth Distance (km) Brightness Sun altitude
Exits shadow 14:52:42 - 112° (ESE) 3,418 5.3 -9.7°
Reaches altitude 10° 14:53:54 10° 112° (ESE) 2,958 5.0 -9.9°
Maximum altitude 15:00:27 82° 201° (SSW) 1,117 3.4 -10.8°
Drops below altitude 10° 15:07:02 10° 290° (WNW) 2,965 6.5 -11.7°
Sets 15:09:31 0° 291° (WNW) 3,924 7.3 -12.0°
